W1NHD Weather Reports


Display with metric or nautical units.
time (UTC)temp
F
wind
direction
speed
MPH
gust
MPH
rain 1hr
in
rain 24hr
in
rain mn
in
humidity
%
barometer
mb
20260507120516 49 0 3.0 6.0 0.00 0.14 0.10 89 1007.7
20260507115518 48 0 2.0 8.0 0.00 0.14 0.10 90 1007.4
20260507114516 48 0 3.0 9.0 0.01 0.14 0.10 91 1007.5
20260507113516 48 23 2.0 5.0 0.01 0.14 0.10 93 1007.5
20260507112517 48 0 1.0 4.0 0.01 0.14 0.10 93 1007.3
20260507111538 48 0 2.0 3.0 0.01 0.14 0.10 93 1007.4
20260507110516 48 0.0 1.0 0.02 0.14 0.10 93 1007.2
20260507105517 48 0.0 2.0 0.03 0.14 0.10 92 1007.6
20260507104516 48 0.0 2.0 0.02 0.13 0.09 92 1007.4
20260507103538 48 315 1.0 4.0 0.03 0.13 0.09 92 1007.3
20260507102517 48 338 1.0 4.0 0.05 0.13 0.09 92 1007.3
20260507101517 48 338 3.0 6.0 0.07 0.13 0.09 91 1007.1
20260507100516 48 0 2.0 5.0 0.06 0.12 0.08 91 1007.1
20260507095516 48 0 3.0 8.0 0.05 0.11 0.07 91 1006.8
20260507094516 48 0 4.0 10.0 0.05 0.11 0.07 91 1006.9
20260507093516 49 0 4.0 9.0 0.04 0.10 0.06 90 1006.9
20260507092536 49 338 3.0 9.0 0.03 0.08 0.04 90 1007.0
20260507091536 50 338 4.0 8.0 0.01 0.06 0.02 89 1007.1
20260507090516 50 293 5.0 11.0 0.01 0.06 0.02 89 1007.0
20260507085516 50 338 3.0 8.0 0.02 0.06 0.02 90 1006.8
20260507084516 50 45 2.0 8.0 0.02 0.06 0.02 90 1006.5
20260507083516 51 338 6.0 12.0 0.02 0.06 0.02 89 1006.3
20260507082516 51 315 6.0 12.0 0.01 0.05 0.01 89 1006.5
20260507081536 51 315 6.0 14.0 0.01 0.05 0.01 89 1006.4
20260507080516 52 338 6.0 13.0 0.01 0.05 0.01 87 1006.4
20260507075516 52 315 5.0 11.0 0.00 0.04 0.00 86 1006.3
20260507074516 52 0 3.0 11.0 0.00 0.04 0.00 86 1006.0
20260507073537 53 0 3.0 8.0 0.00 0.04 0.00 86 1005.9
20260507072516 53 0 4.0 11.0 0.00 0.04 0.00 85 1005.9
20260507071516 53 338 3.0 9.0 0.00 0.04 0.00 86 1006.0
20260507070516 53 293 5.0 13.0 0.00 0.04 0.00 87 1006.0
20260507065516 54 338 3.0 9.0 0.00 0.04 0.00 90 1006.0
20260507064516 54 338 3.0 11.0 0.00 0.04 0.00 90 1005.9
20260507063516 54 338 3.0 6.0 0.00 0.04 0.00 91 1005.6
20260507062516 54 338 3.0 9.0 0.00 0.04 0.00 91 1005.7
20260507061516 54 315 2.0 7.0 0.00 0.04 0.00 92 1005.9
20260507060516 54 315 3.0 7.0 0.00 0.04 0.00 92 1005.8
20260507055536 55 293 4.0 11.0 0.00 0.04 0.00 94 1006.1
20260507054536 55 293 4.0 10.0 0.00 0.04 0.00 95 1006.0
20260507053515 55 315 3.0 11.0 0.00 0.04 0.00 95 1005.8
20260507052536 56 338 4.0 11.0 0.00 0.04 0.00 95 1005.9
20260507051556 58 315 3.0 10.0 0.00 0.04 0.00 97 1005.8
20260507050556 58 293 5.0 11.0 0.00 0.04 0.00 98 1005.7
20260507045515 58 315 3.0 11.0 0.00 0.04 0.00 98 1005.6
20260507044516 57 270 1.0 4.0 0.00 0.04 0.00 98 1005.6
20260507043516 57 203 1.0 3.0 0.00 0.04 0.00 98 1005.7
20260507042516 57 203 1.0 5.0 0.00 0.04 0.00 98 1005.6
20260507041518 56 203 1.0 4.0 0.00 0.04 0.00 98 1005.9
20260507040518 56 203 1.0 6.0 0.00 0.04 0.00 98 1005.8
20260507035518 56 180 2.0 5.0 0.00 0.04 0.04 98 1005.8
20260507034538 56 248 3.0 7.0 0.00 0.04 0.04 98 1005.9
20260507033518 56 225 3.0 9.0 0.00 0.04 0.04 98 1005.6
20260507032516 56 203 3.0 7.0 0.00 0.04 0.04 98 1005.4
20260507031516 56 180 3.0 7.0 0.00 0.04 0.04 98 1005.3
20260507030517 56 180 4.0 13.0 0.00 0.04 0.04 98 1005.3
20260507025516 56 180 4.0 10.0 0.00 0.04 0.04 98 1005.3
20260507024538 56 180 3.0 10.0 0.00 0.04 0.04 97 1005.4
20260507023517 56 203 5.0 13.0 0.00 0.04 0.04 98 1005.3
20260507022516 56 203 3.0 6.0 0.00 0.04 0.04 97 1005.3
20260507021517 56 180 4.0 11.0 0.00 0.04 0.04 97 1005.6
20260507020517 56 225 3.0 9.0 0.00 0.04 0.04 97 1005.6
20260507015517 56 180 4.0 10.0 0.00 0.04 0.04 97 1005.7
20260507014516 56 203 5.0 12.0 0.00 0.04 0.04 97 1005.7
20260507013516 56 203 4.0 12.0 0.00 0.04 0.04 97 1005.8
20260507012539 56 203 4.0 13.0 0.00 0.04 0.04 97 1005.9
20260507011516 56 203 6.0 14.0 0.00 0.04 0.04 97 1006.0
20260507010516 56 180 5.0 11.0 0.00 0.04 0.04 97 1005.9
20260507005518 56 180 6.0 12.0 0.01 0.04 0.04 97 1005.9
20260507004516 56 180 6.0 15.0 0.01 0.04 0.04 97 1006.0
20260507003536 56 180 8.0 18.0 0.02 0.04 0.04 97 1005.9
20260507002516 56 180 6.0 13.0 0.02 0.04 0.04 97 1005.8
20260507001516 56 180 8.0 12.0 0.02 0.04 0.04 97 1005.8
20260507000516 56 180 8.0 18.0 0.02 0.04 0.04 97 1005.9
20260506235536 55 180 7.0 14.0 0.01 0.03 0.03 97 1005.8
20260506234536 55 180 10.0 19.0 0.01 0.03 0.03 97 1005.7
20260506233516 56 180 10.0 20.0 0.00 0.02 0.02 96 1005.9
20260506232516 56 180 8.0 16.0 0.00 0.02 0.02 96 1006.0
20260506231516 56 180 9.0 16.0 0.01 0.02 0.02 96 1006.0
20260506230516 56 180 10.0 20.0 0.01 0.02 0.02 96 1006.3
20260506225516 56 180 9.0 17.0 0.01 0.02 0.02 97 1006.1
20260506224516 56 180 10.0 18.0 0.01 0.02 0.02 95 1006.0
20260506223516 57 180 9.0 20.0 0.01 0.02 0.02 95 1006.3
20260506222516 57 180 8.0 18.0 0.01 0.02 0.02 95 1006.3
20260506221536 57 180 9.0 17.0 0.00 0.01 0.01 95 1006.6
20260506220516 57 180 8.0 13.0 0.01 0.01 0.01 95 1006.7
20260506215516 57 180 8.0 16.0 0.01 0.01 0.01 94 1006.8
20260506214516 57 180 7.0 16.0 0.01 0.01 0.01 94 1006.9
20260506213516 57 180 8.0 19.0 0.01 0.01 0.01 93 1006.8
20260506212515 58 180 7.0 16.0 0.01 0.01 0.01 93 1007.0
20260506211516 58 180 8.0 17.0 0.01 0.01 0.01 92 1007.1
20260506210535 59 180 7.0 12.0 0.00 0.00 0.00 90 1007.0
20260506205516 60 180 9.0 23.0 0.00 0.00 0.00 88 1007.2
20260506204517 60 180 10.0 22.0 0.00 0.00 0.00 87 1007.2
20260506203516 60 180 10.0 18.0 0.00 0.00 0.00 87 1007.1
20260506202516 60 180 10.0 18.0 0.00 0.00 0.00 87 1006.7
20260506201516 60 180 11.0 20.0 0.00 0.00 0.00 86 1006.8
20260506200538 60 180 10.0 18.0 0.00 0.00 0.00 86 1007.0
20260506195559 61 180 10.0 18.0 0.00 0.00 0.00 85 1007.1
20260506194517 61 203 9.0 22.0 0.00 0.00 0.00 83 1007.3
20260506193517 62 180 8.0 22.0 0.00 0.00 0.00 81 1007.2
20260506192518 62 180 10.0 22.0 0.00 0.00 0.00 81 1007.1
20260506191517 62 180 10.0 24.0 0.00 0.00 0.00 80 1007.3
20260506190539 62 180 12.0 23.0 0.00 0.00 0.00 80 1007.3
20260506185517 62 180 10.0 21.0 0.00 0.00 0.00 80 1007.1
20260506184517 62 180 10.0 19.0 0.00 0.00 0.00 81 1007.3
20260506183517 62 180 10.0 19.0 0.00 0.00 0.00 81 1007.3
20260506182518 62 180 11.0 21.0 0.00 0.00 0.00 80 1007.4
20260506181518 63 180 11.0 20.0 0.00 0.00 0.00 79 1007.5
20260506180518 63 180 10.0 19.0 0.00 0.00 0.00 78 1007.7
20260506175518 64 180 12.0 23.0 0.00 0.00 0.00 77 1007.8
20260506174518 65 180 10.0 18.0 0.00 0.00 0.00 77 1007.7
20260506173517 65 180 11.0 21.0 0.00 0.00 0.00 77 1007.9
20260506172517 64 180 12.0 24.0 0.00 0.00 0.00 78 1007.8
20260506171517 63 180 12.0 20.0 0.00 0.00 0.00 80 1008.0
20260506170537 61 180 10.0 18.0 0.00 0.00 0.00 81 1008.2
20260506165517 61 180 10.0 17.0 0.00 0.00 0.00 81 1008.2
20260506164518 62 180 11.0 18.0 0.00 0.00 0.00 80 1008.3
20260506163538 62 180 10.0 21.0 0.00 0.00 0.00 81 1008.5
20260506162518 61 180 9.0 16.0 0.00 0.00 0.00 81 1008.6
20260506161518 62 180 10.0 19.0 0.00 0.00 0.00 80 1008.8
20260506160518 61 180 10.0 18.0 0.00 0.00 0.00 80 1008.9
20260506155517 62 180 10.0 17.0 0.00 0.00 0.00 79 1009.0
20260506154517 63 180 10.0 21.0 0.00 0.00 0.00 78 1009.4
20260506153517 65 180 10.0 18.0 0.00 0.00 0.00 76 1009.4
20260506152517 65 180 10.0 21.0 0.00 0.00 0.00 76 1009.5
20260506151517 64 180 8.0 18.0 0.00 0.00 0.00 78 1009.6
20260506150517 64 180 9.0 18.0 0.00 0.00 0.00 78 1009.6
20260506145517 63 180 10.0 20.0 0.00 0.00 0.00 80 1009.4
20260506144517 62 180 11.0 19.0 0.00 0.00 0.00 82 1009.3
20260506143517 61 180 10.0 18.0 0.00 0.00 0.00 83 1009.3
20260506142517 61 180 10.0 16.0 0.00 0.00 0.00 83 1009.3
20260506141537 60 180 10.0 16.0 0.00 0.00 0.00 85 1009.4
20260506140517 61 180 9.0 18.0 0.00 0.00 0.00 84 1009.5
20260506135517 60 180 10.0 17.0 0.00 0.00 0.00 84 1009.9
20260506134517 61 180 11.0 17.0 0.00 0.00 0.00 84 1009.9
20260506133517 60 180 10.0 26.0 0.00 0.00 0.00 85 1009.9
20260506132517 60 180 11.0 18.0 0.00 0.00 0.00 86 1009.9
20260506131517 60 180 11.0 20.0 0.00 0.00 0.00 86 1009.9
20260506130517 60 180 7.0 22.0 0.00 0.00 0.00 87 1009.9
20260506125516 59 180 8.0 19.0 0.00 0.00 0.00 88 1010.0
20260506124516 59 180 7.0 17.0 0.00 0.00 0.00 88 1010.1
20260506123517 58 180 7.0 14.0 0.00 0.00 0.00 89 1009.8
20260506122517 58 180 9.0 17.0 0.00 0.00 0.00 90 1009.7
20260506121537 58 180 8.0 17.0 0.00 0.00 0.00 90 1009.9